STARLINK-32576

decayed
NORAD ID: 62318 Int'l Des: 2024-239 Owner: SPXS Country: US Constellation: starlink
LEOCIRCULAR
グループ

STARLINK-32576について

説明を読み込み中...

高度履歴

Altitude vs Time

uPlot chart will show altitude changes over time

軌道要素

1 62318U 24239T 25200.44941007 .21308689 11973-4 46790-2 0 9998
2 62318 53.1223 180.5095 0006381 204.5211 296.6335 16.29655350 33900
Epoch: Jul 19, 2025 • Age: 1465 hours

現在のステータス

Position data unavailable
打ち上げ日 Dec 13, 2024
運用期間 0.7 years
落下予定日 Jul 19, 2025
タイプ internet

技術仕様

分類 Payload
質量 730.00 kg
乾燥質量 700.00 kg
総質量 730.00 kg
長さ 0.30 m
直径 4.10 m
スパン 29.00 m
形状 Box + pan
製造者 SPXS
バスタイプ Starlink V2M
フェーズステータス Unknown Transfer Status
所有者/国 SPXS/US

大規模コンステレーション

Loading constellations...